Total_Precipitation_Accumulation
0.06 0.06 0.06 0.05 0.04 0.05 0.06 0.06 0.07 0.08 0.10 0.13 0.17 0.18 0.22 0.22 0.18 0.16 0.12 0.08 0.04 0.07 0.16 0.22 0.30 0.41 0.49 0.46 0.43 0.32 0.23 0.12 0.06 0.04 0.02 0.02 0.07 0.15 0.20 0.22 0.36 0.46 0.40
0.03 0.03 0.03 0.03 0.02 0.02 0.03 0.03 0.04 0.05 0.06 0.08 0.09 0.12 0.15 0.15 0.13 0.14 0.15 0.13 0.07 0.05 0.12 0.17 0.20 0.26 0.40 0.48 0.47 0.39 0.30 0.20 0.14 0.15 0.10 0.08 0.09 0.13 0.20 0.23 0.20 0.22 0.22
0.01 0.01 0.01 0.01 0.01 0.02 0.03 0.03 0.03 0.03 0.04 0.06 0.08 0.10 0.11 0.11 0.11 0.14 0.16 0.15 0.13 0.08 0.09 0.17 0.20 0.23 0.31 0.40 0.48 0.50 0.37 0.27 0.24 0.25 0.17 0.13 0.12 0.12 0.14 0.20 0.23 0.22 0.20
0.01 0.02 0.02 0.02 0.01 0.02 0.05 0.06 0.06 0.06 0.06 0.07 0.10 0.13 0.13 0.13 0.12 0.14 0.19 0.17 0.15 0.11 0.08 0.11 0.20 0.24 0.31 0.35 0.41 0.52 0.46 0.37 0.32 0.28 0.20 0.15 0.13 0.16 0.15 0.17 0.20 0.22 0.24
0.02 0.02 0.03 0.04 0.05 0.06 0.09 0.11 0.10 0.12 0.11 0.10 0.12 0.16 0.18 0.20 0.22 0.21 0.25 0.24 0.19 0.14 0.11 0.09 0.12 0.18 0.28 0.38 0.45 0.53 0.58 0.53 0.40 0.35 0.26 0.20 0.14 0.13 0.15 0.17 0.21 0.23 0.25
0.01 0.01 0.01 0.03 0.06 0.10 0.13 0.15 0.13 0.13 0.15 0.16 0.22 0.24 0.28 0.29 0.27 0.22 0.24 0.28 0.27 0.19 0.16 0.11 0.08 0.09 0.14 0.26 0.41 0.53 0.60 0.59 0.49 0.42 0.36 0.29 0.22 0.15 0.13 0.12 0.15 0.21 0.24
0.00 0.00 0.01 0.01 0.01 0.03 0.05 0.08 0.10 0.11 0.10 0.12 0.17 0.19 0.20 0.23 0.22 0.19 0.21 0.29 0.36 0.37 0.32 0.25 0.16 0.10 0.11 0.16 0.20 0.33 0.46 0.55 0.54 0.45 0.39 0.32 0.23 0.19 0.15 0.12 0.11 0.12 0.16
0.00 0.00 0.00 0.00 0.00 0.01 0.01 0.01 0.03 0.05 0.05 0.06 0.11 0.13 0.12 0.14 0.13 0.13 0.16 0.23 0.30 0.37 0.40 0.37 0.30 0.23 0.18 0.16 0.11 0.14 0.24 0.38 0.49 0.51 0.44 0.34 0.26 0.21 0.18 0.15 0.14 0.11 0.11
0.00 0.00 0.00 0.00 0.00 0.00 0.01 0.01 0.01 0.03 0.03 0.03 0.05 0.09 0.08 0.07 0.10 0.07 0.09 0.13 0.17 0.20 0.25 0.29 0.32 0.31 0.28 0.24 0.20 0.15 0.13 0.24 0.36 0.43 0.46 0.40 0.33 0.29 0.26 0.22 0.19 0.15 0.12
0.00 0.00 0.00 0.00 0.01 0.01 0.01 0.01 0.01 0.02 0.03 0.04 0.04 0.05 0.06 0.04 0.06 0.03 0.03 0.04 0.05 0.07 0.09 0.13 0.17 0.20 0.23 0.23 0.22 0.22 0.20 0.19 0.32 0.37 0.38 0.37 0.33 0.36 0.39 0.34 0.27 0.20 0.17
0.00 0.00 0.00 0.01 0.01 0.01 0.02 0.02 0.02 0.03 0.04 0.05 0.05 0.05 0.05 0.05 0.04 0.05 0.03 0.01 0.02 0.02 0.04 0.06 0.08 0.10 0.13 0.17 0.18 0.19 0.21 0.21 0.30 0.38 0.39 0.40 0.34 0.35 0.41 0.42 0.34 0.27 0.23
0.01 0.01 0.01 0.01 0.02 0.02 0.03 0.03 0.04 0.05 0.05 0.06 0.06 0.06 0.07 0.07 0.05 0.06 0.05 0.02 0.02 0.02 0.03 0.03 0.04 0.07 0.10 0.14 0.17 0.21 0.22 0.23 0.27 0.37 0.40 0.42 0.42 0.41 0.41 0.37 0.35 0.34 0.29
0.01 0.01 0.02 0.03 0.03 0.04 0.05 0.06 0.08 0.09 0.09 0.10 0.09 0.08 0.08 0.08 0.07 0.07 0.07 0.05 0.03 0.02 0.02 0.03 0.03 0.05 0.08 0.11 0.13 0.16 0.18 0.20 0.25 0.33 0.37 0.34 0.33 0.40 0.47 0.43 0.31 0.33 0.34
0.01 0.02 0.03 0.04 0.05 0.06 0.07 0.09 0.10 0.12 0.13 0.14 0.14 0.13 0.12 0.10 0.09 0.08 0.08 0.08 0.06 0.03 0.02 0.01 0.02 0.04 0.07 0.09 0.11 0.13 0.12 0.14 0.16 0.21 0.28 0.31 0.29 0.28 0.33 0.39 0.36 0.34 0.39
0.01 0.02 0.04 0.07 0.09 0.10 0.11 0.12 0.14 0.15 0.15 0.16 0.17 0.18 0.18 0.16 0.15 0.12 0.10 0.10 0.10 0.07 0.03 0.01 0.02 0.03 0.06 0.08 0.11 0.11 0.11 0.12 0.11 0.13 0.19 0.26 0.29 0.29 0.29 0.30 0.29 0.31 0.37
0.03 0.04 0.06 0.08 0.11 0.14 0.16 0.18 0.18 0.17 0.17 0.17 0.18 0.20 0.21 0.21 0.20 0.18 0.15 0.12 0.11 0.10 0.06 0.03 0.03 0.03 0.06 0.08 0.12 0.12 0.11 0.12 0.11 0.13 0.15 0.18 0.25 0.31 0.34 0.34 0.31 0.28 0.30
0.05 0.06 0.07 0.08 0.11 0.14 0.18 0.20 0.21 0.22 0.24 0.23 0.22 0.22 0.23 0.24 0.25 0.25 0.22 0.18 0.14 0.12 0.09 0.04 0.03 0.04 0.08 0.12 0.11 0.12 0.12 0.11 0.10 0.13 0.13 0.14 0.17 0.23 0.29 0.32 0.33 0.32 0.33
0.09 0.10 0.12 0.13 0.13 0.14 0.17 0.21 0.24 0.25 0.28 0.31 0.31 0.30 0.30 0.29 0.29 0.29 0.29 0.28 0.23 0.17 0.13 0.09 0.04 0.05 0.08 0.14 0.15 0.13 0.11 0.09 0.08 0.10 0.11 0.13 0.15 0.18 0.23 0.29 0.31 0.32 0.32
0.18 0.19 0.20 0.22 0.22 0.20 0.21 0.24 0.27 0.30 0.31 0.33 0.35 0.38 0.39 0.37 0.36 0.34 0.34 0.34 0.31 0.24 0.18 0.14 0.10 0.08 0.10 0.15 0.18 0.16 0.14 0.12 0.10 0.11 0.12 0.14 0.18 0.20 0.21 0.24 0.26 0.29 0.29
0.28 0.31 0.34 0.36 0.34 0.33 0.34 0.39 0.38 0.36 0.35 0.37 0.40 0.43 0.45 0.46 0.45 0.42 0.39 0.38 0.37 0.33 0.26 0.20 0.17 0.15 0.15 0.18 0.23 0.20 0.16 0.15 0.15 0.13 0.12 0.12 0.15 0.19 0.21 0.21 0.20 0.21 0.25
0.37 0.40 0.41 0.42 0.40 0.41 0.47 0.54 0.49 0.41 0.38 0.39 0.40 0.44 0.46 0.51 0.55 0.54 0.48 0.40 0.38 0.38 0.35 0.30 0.25 0.21 0.21 0.26 0.32 0.29 0.24 0.18 0.18 0.18 0.13 0.09 0.10 0.11 0.16 0.22 0.26 0.27 0.26
0.39 0.40 0.41 0.40 0.37 0.37 0.45 0.49 0.41 0.31 0.29 0.30 0.33 0.35 0.36 0.41 0.47 0.55 0.55 0.45 0.38 0.38 0.40 0.39 0.36 0.34 0.31 0.32 0.40 0.44 0.39 0.30 0.25 0.20 0.16 0.14 0.11 0.11 0.12 0.15 0.25 0.29 0.30
0.27 0.25 0.26 0.24 0.21 0.21 0.31 0.36 0.29 0.17 0.14 0.16 0.19 0.21 0.22 0.25 0.29 0.33 0.36 0.35 0.33 0.35 0.40 0.45 0.49 0.47 0.43 0.41 0.46 0.51 0.53 0.45 0.31 0.24 0.20 0.25 0.22 0.17 0.15 0.19 0.26 0.25 0.27
0.15 0.13 0.11 0.09 0.08 0.09 0.20 0.31 0.26 0.08 0.07 0.10 0.11 0.13 0.16 0.17 0.19 0.22 0.23 0.24 0.25 0.27 0.34 0.40 0.52 0.57 0.53 0.51 0.55 0.62 0.67 0.65 0.56 0.40 0.26 0.30 0.33 0.27 0.22 0.21 0.21 0.19 0.19
0.09 0.07 0.05 0.03 0.02 0.03 0.12 0.31 0.29 0.06 0.05 0.08 0.09 0.12 0.15 0.15 0.15 0.13 0.17 0.20 0.20 0.23 0.27 0.33 0.40 0.47 0.51 0.57 0.62 0.68 0.73 0.75 0.80 0.75 0.53 0.39 0.37 0.33 0.29 0.27 0.21 0.15 0.12
0.05 0.04 0.02 0.01 0.00 0.01 0.07 0.28 0.37 0.11 0.05 0.06 0.07 0.12 0.22 0.21 0.13 0.08 0.12 0.15 0.16 0.17 0.16 0.16 0.17 0.23 0.32 0.43 0.56 0.69 0.77 0.77 0.80 0.85 0.73 0.56 0.46 0.38 0.37 0.29 0.19 0.13 0.09